Location: Sungai Laei
(2.6000°N, 113.7167°E)
Time: 10:50:26
(UTC+00:00)

Meteor 1-31 Rocket - Pass Details

Date: 22 May 2022
Orbit: 517 x 542 km, 97.7° (Epoch: 06 July)

Event Time Altitude Azimuth Distance (km) Brightness Sun altitude
Rises 21:05:25 0° 24° (NNE) 2,621 7.0 -16.9°
Reaches altitude 10° 21:07:36 10° 33° (NNE) 1,738 6.2 -16.4°
Maximum altitude 21:11:05 37° 101° (ESE) 818 4.2 -15.6°
Drops below altitude 10° 21:14:35 10° 169° (S) 1,751 5.3 -14.8°
Sets 21:16:48 0° 178° (S) 2,644 6.1 -14.3°
